KUIPER-00099

导读 | 豆包AI

KUIPER-00099是美国亚马逊公司“柯伊伯计划”的卫星互联网项目卫星,于北京时间2025年8月11日由SpaceX猎鹰9号火箭,从佛罗里达州卡纳维拉尔角太空军基地发射升空,与其他23颗同批次卫星一同进入近地预定轨道。 该卫星旨在参与构建全球卫星宽带网络,为全球提供高速稳定互联网接入服务,此次发射后柯伊伯计划在轨卫星总数达到102颗,项目最终计划部署超过3200颗卫星,与星链竞争全球卫星互联网市场。

Basic Information
目录编号:
65138
目录名称:
KUIPER-00099
国际标识:
2025-171G
轨道中心:
EARTH
卫星名称:
KUIPER-00099
卫星全名:
KUIPER-00099
卫星状态:
在轨 (已飞行215 天)
发射日期:
2025-08-11 UTC
国别 :
美国 (US)
星等 :
--
Orbit Information
数据来源 国际轨道数据 AOE轨道数据
星历时间 2026-03-13T21:35:52+0800
13小时前
查看轨道信息
2026-03-08T06:00:00+0800
6天前
查看轨道信息
半长轴 7007.521km 7007.765km
偏心率 0.0000726 0.0001923
轨道倾角 51.902° 51.901°
近地点辐角 29.331° 12.181°
升交点赤经 135.937° 160.928°
平近点角 330.769° 107.919°
近地点 628.875km 628.28km
远地点 629.893km 630.976km
周期 97.299分钟 97.304分钟
每日圈数 14.799812 14.799039
Detailed Information
使用方式:
暂无
2D Orbit Map
3D Orbit Map
Orbit Altitude Analysis Chart
Orbit Inclination Analysis Chart
Orbit Comprehensive Analysis Chart
View Comprehensive Chart